STARLINK-3005 (48881 NORAD) Tracking and Keplerian Element Data

This shows tracking and keplerian element data for the satellite.

Feedback or suggestion? Click here.




ElementValue
Catalog48881
NameSTARLINK-3005
Epoch Orbit1449
Epoch Day269.25001157
Epoch Year2021
RAAN37.1676
Inclination97.5216
Eccentricity0.0002873
Argument of Perigee66.2813
Mean Anonmoly308.9678
Mean Motion15.1594462
Decay Rate0.00060654
L11 48881U 21059C 21269.25001157 .00060654 00000-0 31425-2 0 9995
L22 48881 97.5216 37.1676 0002873 66.2813 308.9678 15.15944620 14493

Live tracking and technical data element details for STARLINK-3005 (NORAD 48881). STARLINK-3005 can be tracked NOW for your location showing map with azimuth and elevation plus other details from your city location.

Track the satellite on the map from your city or location and see movement details for azimuth, elevation, latitude, longitude, range, height, and movement on the map or in text.







IsCatalogInMostPopularTable: catalog: 48881, numindb: 19
Update: records affected: 1



GetName: 48881 STARLINK-3005

Hit Count: updated at: Sun, 26 Sep 2021 14:59:00 GMT